Time,TemperatureF,DewpointF,PressureIn,WindDirection,WindDirectionDegrees,WindSpeedMPH,WindSpeedGustMPH,Humidity,HourlyPrecipIn,Conditions,Clouds,dailyrainin,SolarRadiationWatts/m^2,SoftwareType,DateUTC
2013-09-29 00:02:00,-999.0,-99.9,29.76,WNW,285,2.0,7.0,-999,-99.99,,,-99.99,0.000000,,2013-09-29 04:02:00,
2013-09-29 00:14:00,55.0,55.0,29.76,WNW,285,2.0,7.0,100,0.00,,,0.00,0.000000,,2013-09-29 04:14:00,
2013-09-29 00:44:00,55.0,55.0,29.76,NNW,337,3.0,6.0,100,0.00,,,0.00,0.000000,,2013-09-29 04:44:00,
2013-09-29 00:54:00,55.0,55.0,29.76,NNW,337,3.0,6.0,100,0.00,,,0.00,0.000000,,2013-09-29 04:54:00,
2013-09-29 01:03:00,55.0,55.0,29.76,NNW,337,3.0,6.0,100,0.00,,,0.00,0.000000,,2013-09-29 05:03:00,
2013-09-29 01:14:00,55.0,55.0,29.76,NNW,337,3.0,6.0,100,0.00,,,0.00,0.000000,,2013-09-29 05:14:00,
2013-09-29 01:43:00,53.0,53.0,29.76,North,351,3.0,6.0,100,0.00,,,0.00,0.000000,,2013-09-29 05:43:00,
2013-09-29 01:53:00,53.0,53.0,29.76,North,351,3.0,6.0,100,0.00,,,0.00,0.000000,,2013-09-29 05:53:00,
2013-09-29 02:03:00,53.0,53.0,29.76,North,351,3.0,6.0,100,0.00,,,0.00,0.000000,,2013-09-29 06:03:00,
2013-09-29 02:13:00,53.0,53.0,29.76,North,351,3.0,6.0,100,0.00,,,0.00,0.000000,,2013-09-29 06:13:00,
2013-09-29 02:42:00,54.0,54.0,29.75,North,5,2.0,6.0,100,0.00,,,0.00,0.000000,,2013-09-29 06:42:00,
2013-09-29 02:52:00,54.0,54.0,29.75,North,5,2.0,6.0,100,0.00,,,0.00,0.000000,,2013-09-29 06:52:00,
2013-09-29 03:02:00,54.0,54.0,29.75,North,5,2.0,6.0,100,0.00,,,0.00,0.000000,,2013-09-29 07:02:00,
2013-09-29 03:11:00,54.0,54.0,29.75,North,5,2.0,6.0,100,0.00,,,0.00,0.000000,,2013-09-29 07:11:00,
2013-09-29 03:43:00,52.0,52.0,29.74,NNW,338,3.0,7.0,100,0.00,,,0.00,0.000000,,2013-09-29 07:43:00,
2013-09-29 03:52:00,52.0,52.0,29.74,NNW,338,3.0,7.0,100,0.00,,,0.00,0.000000,,2013-09-29 07:52:00,
2013-09-29 04:02:00,52.0,52.0,29.74,NNW,338,3.0,7.0,100,0.00,,,0.00,0.000000,,2013-09-29 08:02:00,
2013-09-29 04:12:00,52.0,52.0,29.74,NNW,338,3.0,7.0,100,0.00,,,0.00,0.000000,,2013-09-29 08:12:00,
2013-09-29 04:42:00,52.0,52.0,29.73,NNW,338,4.0,6.0,100,0.00,,,-99.99,0.000000,,2013-09-29 08:42:00,
2013-09-29 04:52:00,52.0,52.0,29.73,NNW,338,4.0,6.0,100,0.00,,,-99.99,0.000000,,2013-09-29 08:52:00,
2013-09-29 05:02:00,52.0,52.0,29.73,NNW,338,4.0,6.0,100,0.00,,,-99.99,0.000000,,2013-09-29 09:02:00,
2013-09-29 05:11:00,52.0,52.0,29.73,NNW,338,4.0,6.0,100,0.00,,,-99.99,0.000000,,2013-09-29 09:11:00,
2013-09-29 05:54:00,50.0,50.0,29.73,NNW,329,3.0,6.0,100,0.00,,,0.00,0.000000,,2013-09-29 09:54:00,
2013-09-29 06:03:00,50.0,50.0,29.73,NNW,329,3.0,6.0,100,0.00,,,0.00,0.000000,,2013-09-29 10:03:00,
2013-09-29 06:12:00,50.0,50.0,29.73,NNW,329,3.0,6.0,100,0.00,,,0.00,0.000000,,2013-09-29 10:12:00,
2013-09-29 06:43:00,50.0,50.0,29.73,NNW,331,3.0,8.0,100,0.00,,,0.00,0.000000,,2013-09-29 10:43:00,
2013-09-29 06:53:00,50.0,50.0,29.73,NNW,331,3.0,8.0,100,0.00,,,0.00,0.000000,,2013-09-29 10:53:00,
2013-09-29 07:03:00,50.0,50.0,29.73,NNW,331,3.0,8.0,100,0.00,,,0.00,0.000000,,2013-09-29 11:03:00,
2013-09-29 07:12:00,50.0,50.0,29.73,NNW,331,3.0,8.0,100,0.00,,,0.00,0.000000,,2013-09-29 11:12:00,
2013-09-29 07:42:00,50.0,50.0,29.75,NW,316,3.0,6.0,100,0.00,,,0.00,0.000000,,2013-09-29 11:42:00,
2013-09-29 07:52:00,50.0,50.0,29.75,NW,316,3.0,6.0,100,0.00,,,0.00,0.000000,,2013-09-29 11:52:00,
2013-09-29 08:01:00,50.0,50.0,29.75,NW,316,3.0,6.0,100,0.00,,,0.00,0.000000,,2013-09-29 12:01:00,
2013-09-29 08:12:00,50.0,50.0,29.75,NW,316,3.0,6.0,100,0.00,,,0.00,0.000000,,2013-09-29 12:12:00,
2013-09-29 08:42:00,55.0,55.0,29.74,NNW,339,4.0,7.0,100,0.00,,,-99.99,72.000000,,2013-09-29 12:42:00,
2013-09-29 08:52:00,55.0,55.0,29.74,NNW,339,4.0,7.0,100,0.00,,,-99.99,72.000000,,2013-09-29 12:52:00,
2013-09-29 09:02:00,55.0,55.0,29.74,NNW,339,4.0,7.0,100,0.00,,,-99.99,72.000000,,2013-09-29 13:02:00,
2013-09-29 09:11:00,55.0,55.0,29.74,NNW,339,4.0,7.0,100,0.00,,,-99.99,72.000000,,2013-09-29 13:11:00,
2013-09-29 09:42:00,60.0,59.0,29.74,NNW,343,5.0,10.0,95,0.00,,,-99.99,265.000000,,2013-09-29 13:42:00,
2013-09-29 09:53:00,60.0,59.0,29.74,NNW,343,5.0,10.0,95,0.00,,,-99.99,265.000000,,2013-09-29 13:53:00,
2013-09-29 10:02:00,60.0,59.0,29.74,NNW,343,5.0,10.0,95,0.00,,,-99.99,265.000000,,2013-09-29 14:02:00,
2013-09-29 10:12:00,60.0,59.0,29.74,NNW,343,5.0,10.0,95,0.00,,,-99.99,265.000000,,2013-09-29 14:12:00,
2013-09-29 10:43:00,66.0,59.0,29.74,NNW,346,6.0,10.0,77,0.00,,,0.00,463.000000,,2013-09-29 14:43:00,
2013-09-29 10:52:00,66.0,59.0,29.74,NNW,346,6.0,10.0,77,0.00,,,0.00,463.000000,,2013-09-29 14:52:00,
2013-09-29 11:02:00,66.0,59.0,29.74,NNW,346,6.0,10.0,77,0.00,,,0.00,463.000000,,2013-09-29 15:02:00,
2013-09-29 11:12:00,66.0,59.0,29.74,NNW,346,6.0,10.0,77,0.00,,,0.00,463.000000,,2013-09-29 15:12:00,
2013-09-29 11:45:00,68.0,54.0,29.73,NNE,26,7.0,14.0,60,0.00,,,0.00,588.000000,,2013-09-29 15:45:00,
2013-09-29 11:55:00,68.0,54.0,29.73,NNE,26,7.0,14.0,60,0.00,,,0.00,588.000000,,2013-09-29 15:55:00,
2013-09-29 12:05:00,68.0,54.0,29.73,NNE,26,7.0,14.0,60,0.00,,,0.00,588.000000,,2013-09-29 16:05:00,
2013-09-29 12:14:00,68.0,54.0,29.73,NNE,26,7.0,14.0,60,0.00,,,0.00,588.000000,,2013-09-29 16:14:00,
2013-09-29 12:44:00,69.0,52.0,29.72,NNE,14,7.0,15.0,54,0.00,,,0.00,440.000000,,2013-09-29 16:44:00,
2013-09-29 12:54:00,69.0,52.0,29.72,NNE,14,7.0,15.0,54,0.00,,,0.00,440.000000,,2013-09-29 16:54:00,
2013-09-29 13:03:00,69.0,52.0,29.72,NNE,14,7.0,15.0,54,0.00,,,0.00,440.000000,,2013-09-29 17:03:00,
2013-09-29 13:13:00,69.0,52.0,29.72,NNE,14,7.0,15.0,54,0.00,,,0.00,440.000000,,2013-09-29 17:13:00,
2013-09-29 13:43:00,72.0,52.0,29.69,NNE,19,6.0,15.0,50,0.00,,,0.00,455.000000,,2013-09-29 17:43:00,
2013-09-29 13:52:00,72.0,52.0,29.69,NNE,19,6.0,15.0,50,0.00,,,0.00,455.000000,,2013-09-29 17:52:00,
2013-09-29 14:02:00,72.0,52.0,29.69,NNE,19,6.0,15.0,50,0.00,,,0.00,455.000000,,2013-09-29 18:02:00,
2013-09-29 14:13:00,72.0,52.0,29.69,NNE,19,6.0,15.0,50,0.00,,,0.00,455.000000,,2013-09-29 18:13:00,
2013-09-29 14:42:00,72.0,52.0,29.66,NE,48,3.0,18.0,50,0.00,,,0.00,475.000000,,2013-09-29 18:42:00,
2013-09-29 14:52:00,72.0,52.0,29.66,NE,48,3.0,18.0,50,0.00,,,0.00,475.000000,,2013-09-29 18:52:00,
2013-09-29 15:02:00,72.0,52.0,29.66,NE,48,3.0,18.0,50,0.00,,,0.00,475.000000,,2013-09-29 19:02:00,
2013-09-29 15:12:00,72.0,52.0,29.66,NE,48,3.0,18.0,50,0.00,,,0.00,475.000000,,2013-09-29 19:12:00,
2013-09-29 15:42:00,70.0,50.0,29.65,NNE,13,5.0,13.0,50,0.00,,,0.00,407.000000,,2013-09-29 19:42:00,
2013-09-29 15:52:00,70.0,50.0,29.65,NNE,13,5.0,13.0,50,0.00,,,0.00,407.000000,,2013-09-29 19:52:00,
2013-09-29 16:02:00,70.0,50.0,29.65,NNE,13,5.0,13.0,50,0.00,,,0.00,407.000000,,2013-09-29 20:02:00,
2013-09-29 16:12:00,70.0,50.0,29.65,NNE,13,5.0,13.0,50,0.00,,,0.00,407.000000,,2013-09-29 20:12:00,
2013-09-29 16:43:00,77.0,53.0,29.63,West,275,3.0,10.0,43,0.00,,,-99.99,505.000000,,2013-09-29 20:43:00,
2013-09-29 16:52:00,77.0,53.0,29.63,West,275,3.0,10.0,43,0.00,,,-99.99,505.000000,,2013-09-29 20:52:00,
2013-09-29 17:02:00,77.0,53.0,29.63,West,275,3.0,10.0,43,0.00,,,-99.99,505.000000,,2013-09-29 21:02:00,
2013-09-29 17:12:00,77.0,53.0,29.63,West,275,3.0,10.0,43,0.00,,,-99.99,505.000000,,2013-09-29 21:12:00,
2013-09-29 17:44:00,75.0,53.0,29.63,NE,49,3.0,10.0,46,0.00,,,0.00,372.000000,,2013-09-29 21:44:00,
2013-09-29 17:55:00,75.0,53.0,29.63,NE,49,3.0,10.0,46,0.00,,,0.00,372.000000,,2013-09-29 21:55:00,
2013-09-29 18:04:00,75.0,53.0,29.63,NE,49,3.0,10.0,46,0.00,,,0.00,372.000000,,2013-09-29 22:04:00,
2013-09-29 18:14:00,75.0,53.0,29.63,NE,49,3.0,10.0,46,0.00,,,0.00,372.000000,,2013-09-29 22:14:00,
2013-09-29 18:43:00,71.0,51.0,29.64,NNE,24,4.0,9.0,50,0.00,,,0.00,249.000000,,2013-09-29 22:43:00,
2013-09-29 18:53:00,71.0,51.0,29.64,NNE,24,4.0,9.0,50,0.00,,,0.00,249.000000,,2013-09-29 22:53:00,
2013-09-29 19:03:00,71.0,51.0,29.64,NNE,24,4.0,9.0,50,0.00,,,0.00,249.000000,,2013-09-29 23:03:00,
2013-09-29 19:12:00,71.0,51.0,29.64,NNE,24,4.0,9.0,50,0.00,,,0.00,249.000000,,2013-09-29 23:12:00,
2013-09-29 19:43:00,62.0,58.0,29.64,NNW,342,4.0,7.0,88,0.00,,,0.00,40.000000,,2013-09-29 23:43:00,
2013-09-29 19:53:00,62.0,58.0,29.64,NNW,342,4.0,7.0,88,0.00,,,0.00,40.000000,,2013-09-29 23:53:00,
2013-09-29 20:02:00,62.0,58.0,29.64,NNW,342,4.0,7.0,88,0.00,,,0.00,40.000000,,2013-09-30 00:02:00,
2013-09-29 20:12:00,62.0,58.0,29.64,NNW,342,4.0,7.0,88,0.00,,,0.00,40.000000,,2013-09-30 00:12:00,
2013-09-29 20:42:00,56.0,56.0,29.64,NNW,337,3.0,7.0,100,0.00,,,0.00,0.000000,,2013-09-30 00:42:00,
2013-09-29 20:52:00,56.0,56.0,29.64,NNW,337,3.0,7.0,100,0.00,,,0.00,0.000000,,2013-09-30 00:52:00,
2013-09-29 21:02:00,56.0,56.0,29.64,NNW,337,3.0,7.0,100,0.00,,,0.00,0.000000,,2013-09-30 01:02:00,
2013-09-29 21:12:00,56.0,56.0,29.64,NNW,337,3.0,7.0,100,0.00,,,0.00,0.000000,,2013-09-30 01:12:00,
2013-09-29 21:42:00,54.0,54.0,29.65,NNW,335,4.0,6.0,100,0.00,,,0.00,0.000000,,2013-09-30 01:42:00,
2013-09-29 21:52:00,54.0,54.0,29.65,NNW,335,4.0,6.0,100,0.00,,,0.00,0.000000,,2013-09-30 01:52:00,
2013-09-29 22:02:00,54.0,54.0,29.65,NNW,335,4.0,6.0,100,0.00,,,0.00,0.000000,,2013-09-30 02:02:00,
2013-09-29 22:12:00,54.0,54.0,29.65,NNW,335,4.0,6.0,100,0.00,,,0.00,0.000000,,2013-09-30 02:12:00,
2013-09-29 22:42:00,54.0,54.0,29.64,NNW,339,3.0,6.0,100,0.00,,,0.00,0.000000,,2013-09-30 02:42:00,
2013-09-29 22:52:00,54.0,54.0,29.64,NNW,339,3.0,6.0,100,0.00,,,0.00,0.000000,,2013-09-30 02:52:00,
2013-09-29 23:02:00,54.0,54.0,29.64,NNW,339,3.0,6.0,100,0.00,,,0.00,0.000000,,2013-09-30 03:02:00,
2013-09-29 23:12:00,54.0,54.0,29.64,NNW,339,3.0,6.0,100,0.00,,,0.00,0.000000,,2013-09-30 03:12:00,
2013-09-29 23:45:00,53.0,53.0,29.64,NW,323,2.0,6.0,100,0.00,,,0.00,0.000000,,2013-09-30 03:45:00,
2013-09-29 23:55:00,53.0,53.0,29.64,NW,323,2.0,6.0,100,0.00,,,0.00,0.000000,,2013-09-30 03:55:00,